Location: Unspecified
(0.0000°N, 0.0000°E)
Time: 13:02:07
(UTC+00:00)

A-11 Canister half - Visible Passes

Search period start: 22 November 2014 00:00
Search period end: 02 December 2014 00:00
Orbit: 1518 x 1682 km, 47.2° (Epoch: 21 November)

Date Brightness Start Highest point End Pass type
(mag) Time Alt. Az. Time Alt. Az. Time Alt. Az.
22 Nov 9.4 18:46:06 10° NW 18:55:33 66° SW 19:04:46 10° SSE visible
22 Nov 11.5 20:59:22 10° SW 21:00:51 10° SW 21:02:19 10° SW visible
23 Nov 9.3 18:23:09 10° NW 18:32:42 72° SW 18:41:59 10° SSE visible
23 Nov 11.4 20:34:42 10° WSW 20:37:53 12° SW 20:41:03 10° SSW visible
24 Nov 10.1 05:08:55 10° SSW 05:18:15 52° SE 05:27:50 10° NE visible
24 Nov 9.3 18:00:13 10° NW 18:09:50 78° SW 18:19:11 10° SE visible
24 Nov 11.4 20:10:43 10° WSW 20:14:56 14° SW 20:19:07 10° SSW visible
25 Nov 10.2 04:46:11 10° SSW 04:55:22 47° SE 05:04:47 10° ENE visible
25 Nov 11.4 19:46:59 10° W 19:51:59 15° SW 19:56:58 10° SSW visible
26 Nov 10.2 04:23:29 10° SSW 04:32:28 43° SE 04:41:41 10° ENE visible
26 Nov 11.4 19:23:24 10° W 19:29:03 17° SW 19:34:40 10° S visible
27 Nov 10.3 04:00:48 10° SSW 04:09:35 40° SE 04:18:35 10° ENE visible
27 Nov 11.3 18:59:54 10° W 19:06:07 19° SW 19:12:17 10° S visible
28 Nov 10.4 03:38:08 10° SSW 03:46:41 36° SE 03:55:26 10° ENE visible
28 Nov 11.3 18:36:29 10° W 18:43:12 21° SW 18:49:51 10° S visible
29 Nov 10.5 03:15:29 10° S 03:23:47 33° SE 03:32:16 10° ENE visible
29 Nov 9.2 05:19:13 10° SW 05:28:34 54° NW 05:38:14 10° NNE visible
29 Nov 11.3 18:13:08 10° W 18:20:18 24° SW 18:27:21 10° S visible
30 Nov 10.5 02:52:52 10° S 03:00:53 30° SE 03:09:03 10° ENE visible
30 Nov 9.1 04:56:15 10° SW 05:05:40 58° NW 05:15:25 10° NNE visible
01 Dec 10.6 02:30:17 10° S 02:37:58 27° SE 02:45:49 10° ENE visible
01 Dec 9.0 04:33:18 10° SW 04:42:47 64° NW 04:52:36 10° NNE visible
